Logan, UT

10:58 AM MST on December 05, 2019 (GMT -0700)
Logan-Cache

Weather History for KLGU - October, 2019

Change the Weather History Date:

Friday, October 11, 2019

  Actual Average Record
Temperature  
Mean Temperature 32 °F -  
Max Temperature 46 °F 67 °F 81 °F (1999)
Min Temperature 18 °F 34 °F 21 °F (2003)
Degree Days  
Heating Degree Days 33    
Moisture  
Dew Point 16 °F    
Average Humidity 58    
Maximum Humidity 84    
Minimum Humidity 26    
Precipitation  
Precipitation 0.00 in - - ()
Sea Level Pressure  
Sea Level Pressure 30.45 in    
Wind  
Wind Speed 1 mph ()    
Max Wind Speed 5 mph    
Max Gust Speed -    
Visibility 10.0 miles    
Events      
Averages and records for this station are not official NWS values.
T = Trace of Precipitation, MM = Missing Value Source: Averaged Metar Reports

Daily Weather History Graph

Daily Weather History Graph

Search for Another Location

Airport or City:

Astronomy

Oct. 11, 2019 Rise Set
Actual Time 7:35 AM MDT 6:52 PM MDT
Civil Twilight 7:07 AM MDT 7:20 PM MDT
Nautical Twilight 6:34 AM MDT 7:52 PM MDT
Astronomical Twilight 6:02 AM MDT 8:24 PM MDT
Moon 6:26 PM MDT (10/11) 5:15 AM MDT (10/11)
Length of Visible Light 12h 13m
Length of Day
11h 17m
Waxing Gibbous, 96% of the Moon is Illuminated
Oct 11
Waxing Gibbous
Oct 13
Full
Oct 21
Last Quarter
Oct 27
New
Nov 4
First Quarter

Hourly Weather History & Observations

Time (MDT) Temp. Windchill Dew Point Humidity Pressure Visibility Wind Dir Wind Speed Gust Speed Precip Events Conditions
12:51 AM 25.0 °F - 17.1 °F 72% 30.50 in 10.0 mi Calm Calm - N/A   Clear
1:51 AM 25.0 °F 20.7 °F 17.1 °F 72% 30.50 in 10.0 mi SSW 3.5 mph - N/A   Clear
2:51 AM 21.0 °F - 15.1 °F 78% 30.51 in 10.0 mi Calm Calm - N/A   Clear
3:51 AM 21.9 °F - 15.1 °F 75% 30.51 in 10.0 mi Calm Calm - N/A   Clear
4:51 AM 19.9 °F 13.4 °F 15.1 °F 81% 30.51 in 10.0 mi North 4.6 mph - N/A   Clear
5:51 AM 19.9 °F - 15.1 °F 81% 30.52 in 10.0 mi Calm Calm - N/A   Clear
6:51 AM 18.0 °F - 14.0 °F 84% 30.55 in 10.0 mi Calm Calm - N/A   Clear
7:51 AM 19.0 °F - 14.0 °F 81% 30.57 in 10.0 mi Calm Calm - N/A   Clear
8:51 AM 23.0 °F - 18.0 °F 81% 30.58 in 10.0 mi Calm Calm - N/A   Clear
9:51 AM 27.0 °F - 19.9 °F 75% 30.57 in - Calm Calm - N/A   Clear
10:51 AM 30.9 °F 27.5 °F 17.1 °F 57% 30.54 in 10.0 mi West 3.5 mph - N/A   Clear
11:51 AM 35.1 °F 32.2 °F 19.0 °F 52% 30.51 in 10.0 mi WNW 3.5 mph - N/A   Clear
12:51 PM 39.0 °F - 17.1 °F 41% 30.48 in 10.0 mi Calm Calm - N/A   Clear
1:51 PM 42.1 °F 39.2 °F 10.9 °F 28% 30.44 in 10.0 mi West 4.6 mph - N/A   Clear
2:51 PM 45.0 °F 42.6 °F 12.0 °F 26% 30.42 in 10.0 mi North 4.6 mph - N/A   Clear
3:51 PM 46.0 °F 44.8 °F 12.9 °F 26% 30.39 in 10.0 mi NNW 3.5 mph - N/A   Clear
4:51 PM 46.9 °F - 14.0 °F 27% 30.36 in 10.0 mi North 4.6 mph - N/A   Clear
5:51 PM 46.0 °F - 15.1 °F 29% 30.35 in 10.0 mi Calm Calm - N/A   Clear
6:51 PM 43.0 °F - 16.0 °F 34% 30.33 in - Calm Calm - N/A   Clear
7:51 PM 37.0 °F 33.3 °F 21.0 °F 52% 30.34 in - East 4.6 mph - N/A   Clear
8:51 PM 37.0 °F - 19.0 °F 48% 30.32 in - Calm Calm - N/A   Clear
9:51 PM 34.0 °F - 19.0 °F 54% 30.31 in 10.0 mi Calm Calm - N/A   Clear
10:51 PM 27.0 °F - 19.9 °F 75% 30.32 in 10.0 mi Calm Calm - N/A   Clear
11:51 PM 28.9 °F - 19.9 °F 69% 30.30 in - Calm Calm - N/A   Clear